SCP
0 0 0 0 0 0 0 0 0 0 0 0 0 0 0 0 0 0 0 0 0 0 0 0 0 0 0 0 0 0 0 0 0 0 0 0 0 0 0 0 0 0 0
0 0 0 0 0 0 0 0 0 0 0 0 0 0 0 0 0 0 0 0 0 0 0 0 0 0 0 0 0 0 0 0 0 0 0 0 0 0 0 0 0 0 0
0 0 0 0 0 0 0 0 0 0 0 0 0 0 0 0 0 0 0 0 0 0 0 0 0 0 0 0 0 0 0 0 0 0 0 0 0 0 0 0 0 0 0
0 0 0 0 0 0 0 0 0 0 0 0 0 0 0 0 0 0 0 0 0 0 0 0 0 0 0 0 0 0 0 0 0 0 0 0 0 0 0 0 0 0 0
0 0 0 0 0 0 0 0 0 0 0 0 0 0 0 0 0 0 0 0 0 0 0 0 0 0 0 0 0 0 0 0 0 0 0 0 0 0 0 0 0 0 0
0 0 0 0 0 0 0 0 0 0 0 0 0 0 0 0 0 0 0 0 0 0 0 0 0 0 0 0 0 0 0 0 0 0 0 0 0 0 0 0 0 0 0
0 0 0 0 0 0 0 0 0 0 0 0 0 0 0 0 0 0 0 0 0 0 0 0 0 0 0 0 0 0 0 0 0 0 0 0 0 0 0 0 0 0 0
0 0 0 0 0 0 0 0 0 0 0 0 0 0 0 0 0 0 0 0 0 0 0 0 0 0 0 0 0 0 0 0 0 0 0 0 0 0 0 0 0 0 0
0 0 0 0 0 0 0 0 0 -0 0 0 0 0 0 0 0 0 0 0 0 0 0 0 0 0 0 0 0 0 0 0 0 0 0 0 0 0 0 0 0 0 0
0 0 0 0 0 0 0 0 -0 0 0 0 0 0 0 0 0 0 0 0 0 0 0 0 0 0 0 0 0 0 0 0 0 0 0 0 0 0 0 0 0 0 0
0 0 0 0 0 0 0 0 0 0 -0 -0 0 0 0 0 0 -0 0 0 0 0 0 0 0 0 0 0 0 0 0 0 0 0 0 0 0 0 0 0 0 0 0
0 0 0 0 0 0 0 -0 -0 -0 -0 -0 -0 -0 0 0 -0 -0 -0 -0 0 0 0 0 0 0 0 0 0 0 0 0 0 0 0 0 0 0 0 0 0 0 0
0 0 0 0 0 0 0 -0 -0 0 0 0 0 0 -0 0 0 0 -0 -0 -0 0 0 0 0 0 0 0 0 0 0 0 0 0 0 0 0 0 0 0 0 0 0
0 0 0 0 0 0 0 0 0 0 0 0 0 0 0 0 0 0 0 0 0 0 0 0 0 0 0 0 0 0 0 0 0 0 0 0 0 0 0 0 0 0 0
0 0 0 0 0 0 0 0 0 0 0 0 0 0 0 0 0 0 0 0 0 0 0 0 0 0 0 0 0 0 0 0 0 0 0 0 0 0 0 0 0 0 0
0 -0 -0 -0 -0 0 0 0 0 0 0 0 0 0 0 0 0 0 0 0 0 0 0 0 0 0 0 0 0 0 0 0 0 0 0 0 0 0 0 0 0 0 0
0 0 0 0 0 0 0 0 0 0 0 0 0 0 0 0 0 0 0 0 0 0 0 0 0 0 0 0 0 0 0 0 0 0 0 0 0 0 0 0 0 0 0
0 0 0 0 0 0 0 0 0 0 0 0 0 0 0 0 0 0 0 0 0 0 0 0 0 0 0 0 0 0 0 0 0 0 0 0 0 0 0 0 0 0 0
0 0 0 0 0 0 0 0 0 0 0 0 0 0 0 0 0 0 0 0 0 0 0 0 0 0 0 0 0 0 0 0 0 0 0 0 0 0 0 0 0 0 0
0 0 0 0 0 0 0 0 0 0 0 0 0 0 0 0 0 0 0 0 0 0 0 0 0 0 0 0 0 0 0 0 0 0 0 0 0 0 0 0 0 0 0
0 0 0 0 0 0 0 0 0 0 0 0 0 0 0 0 0 0 0 0 0 0 0 0 0 0 0 0 0 0 0 0 0 0 0 0 0 0 0 0 0 0 0
-0 -0 0 0 0 0 0 0 0 0 0 0 0 0 0 0 0 0 0 0 0 0 0 0 0 0 0 0 0 0 0 0 0 0 0 0 0 0 0 0 0 0 0
0 0 0 0 0 0 0 0 0 0 0 0 0 0 0 0 0 0 0 0 0 0 0 0 0 0 0 0 0 0 0 0 0 0 0 0 0 0 0 0 0 0 0
0 0 -0 -0 -0 0 0 0 0 0 0 0 0 0 0 0 0 0 0 0 0 0 0 0 0 0 0 0 0 0 0 0 0 0 0 0 0 0 0 0 0 0 0
0 0 0 -0 -0 0 0 0 0 0 0 0 0 0 0 0 0 0 0 0 0 0 0 0 0 0 0 0 0 0 0 0 0 0 0 0 0 0 0 0 0 0 0
0 0 0 0 0 -0 0 0 0 0 0 0 0 0 0 0 0 0 0 0 0 0 0 0 0 0 0 0 0 0 0 0 0 0 0 0 0 0 0 0 0 0 0
Wind_Speed_500mb
27 25 25 26 27 28 30 33 36 38 40 42 44 44 45 46 48 56 64 67 71 72 74 79 89 88 90 94 91 93 101 96 108 124 101 98 98 95 103 100 113 108 101
28 27 28 28 29 29 30 32 34 36 39 42 45 46 47 47 47 49 53 58 66 72 74 76 86 87 92 91 89 97 98 97 104 116 111 102 108 110 112 115 115 118 98
30 31 30 30 28 28 28 30 32 37 40 43 46 48 49 49 50 49 51 52 54 61 67 71 80 77 85 89 89 95 96 102 98 102 124 105 105 112 113 120 127 128 104
36 35 35 32 29 27 27 29 32 38 43 46 49 50 50 52 50 49 53 56 59 62 62 66 73 76 80 83 85 91 92 92 89 98 99 118 99 113 115 122 127 131 126
39 38 36 34 30 26 27 32 37 42 47 52 56 57 58 59 57 56 57 61 65 71 72 72 72 72 73 80 81 91 92 95 94 98 98 109 87 114 122 117 135 133 137
45 41 40 39 35 31 35 42 48 53 57 62 65 67 68 68 66 63 64 70 74 77 79 79 79 80 79 78 80 78 77 89 100 98 100 97 102 95 109 111 126 106 113
51 45 43 42 38 37 42 49 56 63 68 72 76 77 77 77 76 76 75 80 84 85 85 86 90 87 81 81 78 78 82 83 85 91 103 111 112 103 101 99 113 114 126
56 48 45 43 43 44 49 56 65 73 79 86 89 89 88 87 86 86 86 88 91 91 90 89 95 98 91 86 84 84 84 86 91 91 93 103 102 94 95 103 112 106 104
58 50 41 44 52 56 61 69 77 85 91 97 101 102 100 101 94 90 88 89 95 97 91 91 95 101 96 91 91 90 94 94 83 86 91 94 90 96 89 104 106 102 99
45 42 46 55 60 65 70 78 87 93 100 105 112 110 109 110 101 93 90 93 97 96 97 96 96 95 93 91 91 88 99 104 91 87 88 88 88 92 91 91 91 97 92
49 51 54 57 64 71 79 85 93 101 109 115 119 121 117 113 112 102 93 93 93 96 100 106 104 100 92 89 92 95 99 97 92 88 92 93 93 93 95 91 80 89 105
48 54 61 68 74 82 90 98 102 108 113 119 120 127 123 120 119 116 110 103 97 98 105 106 108 104 103 104 102 101 100 98 93 94 95 94 93 92 93 90 80 78 94
57 66 74 82 88 94 100 107 113 112 113 119 118 125 133 127 126 120 114 109 103 100 104 109 113 116 112 112 112 110 102 96 94 93 100 97 94 89 90 85 76 78 79
74 81 88 96 101 105 107 108 111 112 115 118 121 127 134 139 132 120 110 101 97 99 105 110 114 117 120 120 118 111 100 91 86 89 93 96 92 84 84 81 74 80 72
86 92 97 101 104 109 112 113 114 116 110 116 118 120 123 145 136 116 115 118 117 107 98 112 116 114 105 97 95 98 96 93 86 78 84 89 90 82 79 77 80 85 81
88 93 97 101 105 108 113 123 118 121 119 116 114 108 118 126 137 116 105 107 112 88 92 103 107 102 99 91 87 91 98 93 85 73 77 85 92 86 81 79 84 91 98
90 93 97 99 102 106 108 113 127 124 117 116 110 107 102 112 104 107 100 96 102 91 93 101 100 100 97 90 84 81 85 82 84 78 73 80 90 87 88 89 94 94 97
86 89 93 96 98 100 102 106 109 119 131 128 108 85 79 86 93 101 99 94 107 97 92 98 101 98 94 91 86 86 85 80 78 85 82 80 87 92 92 99 102 104 106
81 85 88 92 95 96 99 103 103 101 104 123 127 112 96 94 86 86 83 88 101 105 95 88 96 98 94 90 88 92 91 89 81 85 83 83 86 90 95 102 103 95 97
76 80 84 90 93 95 96 97 100 103 106 110 116 112 102 96 98 96 85 80 83 88 92 90 94 92 93 95 94 93 89 87 82 86 83 86 88 92 100 104 98 95 93
73 79 81 87 89 89 91 93 94 94 97 103 110 107 92 84 97 98 96 90 88 90 92 86 92 86 89 92 94 89 86 86 86 88 89 90 90 96 100 100 100 101 94
70 75 78 80 81 82 83 84 87 90 93 98 103 100 92 90 97 98 96 94 87 84 83 78 82 78 85 89 94 87 88 89 90 88 89 89 94 101 103 106 102 95 90
71 76 79 80 78 79 81 81 84 87 94 99 101 105 102 101 100 100 97 93 91 86 80 79 80 81 87 84 78 82 84 87 89 90 91 96 102 104 108 106 98 95 89
69 69 72 73 73 74 76 79 78 80 84 88 92 95 94 94 92 91 88 87 90 102 98 86 75 76 79 73 71 75 80 80 84 88 95 103 103 107 106 99 96 89 83
64 68 71 72 72 70 71 73 75 76 77 78 81 84 84 82 80 78 76 71 67 63 62 62 62 60 61 65 65 68 71 76 81 91 96 95 106 104 100 96 89 83 79
60 63 67 70 71 68 66 66 70 71 70 70 70 69 68 68 66 62 58 53 48 44 43 43 45 48 50 50 54 61 68 75 80 87 89 101 102 99 92 87 82 80 77
Wind_Direction_500mb
239 252 265 275 280 283 285 286 287 289 290 292 294 297 300 302 299 291 287 287 285 282 278 277 281 282 282 281 280 276 268 270 266 279 275 276 270 264 268 265 252 245 253
257 266 271 275 278 280 283 286 290 293 295 298 298 298 300 302 303 304 300 292 288 286 283 280 280 282 282 281 281 274 268 269 269 270 275 273 273 271 271 266 257 249 251
254 257 260 262 265 274 282 289 293 296 298 298 299 300 301 303 305 307 305 303 300 293 290 286 283 279 279 281 279 278 276 275 278 270 269 278 270 267 270 262 261 256 247
247 248 250 253 265 278 289 297 303 307 307 304 303 304 306 305 307 309 306 305 303 300 298 295 289 284 280 279 279 279 278 279 269 280 279 278 268 270 268 262 261 256 252
242 243 248 258 268 280 293 303 309 311 312 311 308 305 305 306 309 311 309 308 306 303 302 301 298 295 291 284 277 276 277 280 279 276 273 288 275 286 268 269 262 259 251
241 245 251 258 266 278 293 303 308 310 310 309 310 308 307 307 308 310 309 307 305 303 302 301 301 299 299 298 295 282 273 275 276 274 278 276 283 283 288 274 265 245 238
241 243 249 256 262 276 291 300 306 308 309 309 309 308 306 306 306 306 309 307 305 304 303 304 303 302 303 300 300 299 292 283 273 274 276 277 279 282 288 281 267 253 248
237 239 244 253 267 279 291 300 305 307 308 309 307 306 304 304 305 305 306 305 302 302 303 303 302 300 303 305 305 298 293 289 284 280 276 278 282 283 287 285 280 269 253
234 236 243 260 270 281 290 298 303 305 306 307 306 305 304 303 304 303 306 304 300 299 300 299 299 299 302 305 303 298 296 292 291 285 279 279 278 285 286 282 271 253 248
229 239 251 261 272 283 291 296 300 303 303 304 303 302 302 300 301 303 305 303 300 301 300 297 295 296 299 300 299 298 294 295 300 294 286 283 280 283 282 283 280 256 240
231 245 257 269 280 288 293 296 299 300 300 300 300 300 299 298 299 301 301 300 302 302 299 298 300 299 298 295 292 291 290 295 294 293 287 283 280 283 282 285 280 266 246
251 263 273 280 285 289 292 295 297 297 297 297 298 297 297 298 299 301 303 304 305 301 299 299 297 297 297 295 291 288 289 292 291 287 285 283 281 283 286 285 280 267 249
274 277 281 284 287 290 293 294 294 294 294 294 295 295 296 298 298 300 301 302 302 301 299 297 296 294 292 290 289 291 292 288 288 285 284 285 283 283 280 272 266 247 241
285 286 288 290 291 291 290 290 291 291 292 293 294 295 296 296 296 297 300 298 297 296 295 292 289 288 288 288 287 287 289 289 286 283 282 280 277 275 272 261 247 234 227
291 291 291 290 290 290 290 291 291 291 291 292 291 293 293 292 294 295 295 294 294 293 292 289 286 285 284 282 281 284 288 288 284 282 277 273 269 264 256 242 231 221 210
294 294 294 294 295 294 294 293 290 290 291 290 289 287 288 287 292 291 288 290 293 288 285 280 279 277 275 275 275 279 284 281 281 281 278 273 265 257 243 225 214 203 192
297 297 296 295 294 295 295 295 296 295 293 291 290 288 287 288 284 284 285 286 284 285 277 275 274 274 273 272 271 273 274 270 279 276 273 268 258 248 229 212 198 190 180
300 299 300 300 300 299 299 299 299 299 300 299 297 292 285 283 283 284 286 287 283 280 270 268 270 270 271 269 269 272 273 269 262 271 269 259 251 239 218 204 196 188 180
307 305 305 303 301 301 302 301 300 299 296 295 298 295 296 295 289 285 282 275 274 275 274 270 270 270 269 269 270 274 274 269 259 262 256 250 238 224 204 195 192 187 174
312 310 311 309 306 303 301 298 296 295 296 296 296 296 299 299 295 294 288 280 274 272 274 274 273 269 271 272 276 276 271 266 254 252 243 237 225 211 196 191 184 174 166
320 317 313 308 307 306 303 301 300 298 295 295 296 300 301 292 289 286 284 279 275 273 272 273 271 271 269 271 277 277 264 258 250 248 239 226 213 194 189 187 175 171 169
328 326 321 316 314 310 308 306 302 301 300 300 302 304 304 295 294 294 294 293 290 287 283 278 275 271 271 273 273 269 261 253 245 237 225 213 197 191 187 177 172 168 166
337 333 328 323 319 315 312 310 307 305 303 302 302 302 303 301 300 298 297 296 295 294 289 287 282 275 276 274 273 265 254 250 241 229 211 195 189 187 181 173 168 164 165
340 335 332 330 326 321 316 312 306 302 300 298 300 301 300 300 299 296 294 288 282 280 281 276 272 274 277 277 272 259 243 235 227 217 210 196 187 181 172 166 165 164 162
346 344 342 340 335 330 324 320 315 314 311 308 306 305 304 303 301 299 299 299 298 296 292 288 281 278 271 262 258 247 234 223 214 203 196 194 180 170 167 165 162 158 157
351 351 350 347 344 342 334 332 324 320 317 316 314 311 310 306 304 304 303 298 292 286 279 270 263 256 249 243 239 228 216 211 205 195 191 175 166 165 164 160 155 154 157
Wind_Speed_850mb
27 25 25 26 27 28 30 33 36 38 40 42 44 44 45 46 48 56 64 67 71 72 74 79 89 88 90 94 91 93 101 96 108 124 101 98 98 95 103 100 113 108 101
28 27 28 28 29 29 30 32 34 36 39 42 45 46 47 47 47 49 53 58 66 72 74 76 86 87 92 91 89 97 98 97 104 116 111 102 108 110 112 115 115 118 98
30 31 30 30 28 28 28 30 32 37 40 43 46 48 49 49 50 49 51 52 54 61 67 71 80 77 85 89 89 95 96 102 98 102 124 105 105 112 113 120 127 128 104
36 35 35 32 29 27 27 29 32 38 43 46 49 50 50 52 50 49 53 56 59 62 62 66 73 76 80 83 85 91 92 92 89 98 99 118 99 113 115 122 127 131 126
39 38 36 34 30 26 27 32 37 42 47 52 56 57 58 59 57 56 57 61 65 71 72 72 72 72 73 80 81 91 92 95 94 98 98 109 87 114 122 117 135 133 137
45 41 40 39 35 31 35 42 48 53 57 62 65 67 68 68 66 63 64 70 74 77 79 79 79 80 79 78 80 78 77 89 100 98 100 97 102 95 109 111 126 106 113
51 45 43 42 38 37 42 49 56 63 68 72 76 77 77 77 76 76 75 80 84 85 85 86 90 87 81 81 78 78 82 83 85 91 103 111 112 103 101 99 113 114 126
56 48 45 43 43 44 49 56 65 73 79 86 89 89 88 87 86 86 86 88 91 91 90 89 95 98 91 86 84 84 84 86 91 91 93 103 102 94 95 103 112 106 104
58 50 41 44 52 56 61 69 77 85 91 97 101 102 100 101 94 90 88 89 95 97 91 91 95 101 96 91 91 90 94 94 83 86 91 94 90 96 89 104 106 102 99
45 42 46 55 60 65 70 78 87 93 100 105 112 110 109 110 101 93 90 93 97 96 97 96 96 95 93 91 91 88 99 104 91 87 88 88 88 92 91 91 91 97 92
49 51 54 57 64 71 79 85 93 101 109 115 119 121 117 113 112 102 93 93 93 96 100 106 104 100 92 89 92 95 99 97 92 88 92 93 93 93 95 91 80 89 105
48 54 61 68 74 82 90 98 102 108 113 119 120 127 123 120 119 116 110 103 97 98 105 106 108 104 103 104 102 101 100 98 93 94 95 94 93 92 93 90 80 78 94
57 66 74 82 88 94 100 107 113 112 113 119 118 125 133 127 126 120 114 109 103 100 104 109 113 116 112 112 112 110 102 96 94 93 100 97 94 89 90 85 76 78 79
74 81 88 96 101 105 107 108 111 112 115 118 121 127 134 139 132 120 110 101 97 99 105 110 114 117 120 120 118 111 100 91 86 89 93 96 92 84 84 81 74 80 72
86 92 97 101 104 109 112 113 114 116 110 116 118 120 123 145 136 116 115 118 117 107 98 112 116 114 105 97 95 98 96 93 86 78 84 89 90 82 79 77 80 85 81
88 93 97 101 105 108 113 123 118 121 119 116 114 108 118 126 137 116 105 107 112 88 92 103 107 102 99 91 87 91 98 93 85 73 77 85 92 86 81 79 84 91 98
90 93 97 99 102 106 108 113 127 124 117 116 110 107 102 112 104 107 100 96 102 91 93 101 100 100 97 90 84 81 85 82 84 78 73 80 90 87 88 89 94 94 97
86 89 93 96 98 100 102 106 109 119 131 128 108 85 79 86 93 101 99 94 107 97 92 98 101 98 94 91 86 86 85 80 78 85 82 80 87 92 92 99 102 104 106
81 85 88 92 95 96 99 103 103 101 104 123 127 112 96 94 86 86 83 88 101 105 95 88 96 98 94 90 88 92 91 89 81 85 83 83 86 90 95 102 103 95 97
76 80 84 90 93 95 96 97 100 103 106 110 116 112 102 96 98 96 85 80 83 88 92 90 94 92 93 95 94 93 89 87 82 86 83 86 88 92 100 104 98 95 93
73 79 81 87 89 89 91 93 94 94 97 103 110 107 92 84 97 98 96 90 88 90 92 86 92 86 89 92 94 89 86 86 86 88 89 90 90 96 100 100 100 101 94
70 75 78 80 81 82 83 84 87 90 93 98 103 100 92 90 97 98 96 94 87 84 83 78 82 78 85 89 94 87 88 89 90 88 89 89 94 101 103 106 102 95 90
71 76 79 80 78 79 81 81 84 87 94 99 101 105 102 101 100 100 97 93 91 86 80 79 80 81 87 84 78 82 84 87 89 90 91 96 102 104 108 106 98 95 89
69 69 72 73 73 74 76 79 78 80 84 88 92 95 94 94 92 91 88 87 90 102 98 86 75 76 79 73 71 75 80 80 84 88 95 103 103 107 106 99 96 89 83
64 68 71 72 72 70 71 73 75 76 77 78 81 84 84 82 80 78 76 71 67 63 62 62 62 60 61 65 65 68 71 76 81 91 96 95 106 104 100 96 89 83 79
60 63 67 70 71 68 66 66 70 71 70 70 70 69 68 68 66 62 58 53 48 44 43 43 45 48 50 50 54 61 68 75 80 87 89 101 102 99 92 87 82 80 77
Wind_Direction_850mb
239 252 265 275 280 283 285 286 287 289 290 292 294 297 300 302 299 291 287 287 285 282 278 277 281 282 282 281 280 276 268 270 266 279 275 276 270 264 268 265 252 245 253
257 266 271 275 278 280 283 286 290 293 295 298 298 298 300 302 303 304 300 292 288 286 283 280 280 282 282 281 281 274 268 269 269 270 275 273 273 271 271 266 257 249 251
254 257 260 262 265 274 282 289 293 296 298 298 299 300 301 303 305 307 305 303 300 293 290 286 283 279 279 281 279 278 276 275 278 270 269 278 270 267 270 262 261 256 247
247 248 250 253 265 278 289 297 303 307 307 304 303 304 306 305 307 309 306 305 303 300 298 295 289 284 280 279 279 279 278 279 269 280 279 278 268 270 268 262 261 256 252
242 243 248 258 268 280 293 303 309 311 312 311 308 305 305 306 309 311 309 308 306 303 302 301 298 295 291 284 277 276 277 280 279 276 273 288 275 286 268 269 262 259 251
241 245 251 258 266 278 293 303 308 310 310 309 310 308 307 307 308 310 309 307 305 303 302 301 301 299 299 298 295 282 273 275 276 274 278 276 283 283 288 274 265 245 238
241 243 249 256 262 276 291 300 306 308 309 309 309 308 306 306 306 306 309 307 305 304 303 304 303 302 303 300 300 299 292 283 273 274 276 277 279 282 288 281 267 253 248
237 239 244 253 267 279 291 300 305 307 308 309 307 306 304 304 305 305 306 305 302 302 303 303 302 300 303 305 305 298 293 289 284 280 276 278 282 283 287 285 280 269 253
234 236 243 260 270 281 290 298 303 305 306 307 306 305 304 303 304 303 306 304 300 299 300 299 299 299 302 305 303 298 296 292 291 285 279 279 278 285 286 282 271 253 248
229 239 251 261 272 283 291 296 300 303 303 304 303 302 302 300 301 303 305 303 300 301 300 297 295 296 299 300 299 298 294 295 300 294 286 283 280 283 282 283 280 256 240
231 245 257 269 280 288 293 296 299 300 300 300 300 300 299 298 299 301 301 300 302 302 299 298 300 299 298 295 292 291 290 295 294 293 287 283 280 283 282 285 280 266 246
251 263 273 280 285 289 292 295 297 297 297 297 298 297 297 298 299 301 303 304 305 301 299 299 297 297 297 295 291 288 289 292 291 287 285 283 281 283 286 285 280 267 249
274 277 281 284 287 290 293 294 294 294 294 294 295 295 296 298 298 300 301 302 302 301 299 297 296 294 292 290 289 291 292 288 288 285 284 285 283 283 280 272 266 247 241
285 286 288 290 291 291 290 290 291 291 292 293 294 295 296 296 296 297 300 298 297 296 295 292 289 288 288 288 287 287 289 289 286 283 282 280 277 275 272 261 247 234 227
291 291 291 290 290 290 290 291 291 291 291 292 291 293 293 292 294 295 295 294 294 293 292 289 286 285 284 282 281 284 288 288 284 282 277 273 269 264 256 242 231 221 210
294 294 294 294 295 294 294 293 290 290 291 290 289 287 288 287 292 291 288 290 293 288 285 280 279 277 275 275 275 279 284 281 281 281 278 273 265 257 243 225 214 203 192
297 297 296 295 294 295 295 295 296 295 293 291 290 288 287 288 284 284 285 286 284 285 277 275 274 274 273 272 271 273 274 270 279 276 273 268 258 248 229 212 198 190 180
300 299 300 300 300 299 299 299 299 299 300 299 297 292 285 283 283 284 286 287 283 280 270 268 270 270 271 269 269 272 273 269 262 271 269 259 251 239 218 204 196 188 180
307 305 305 303 301 301 302 301 300 299 296 295 298 295 296 295 289 285 282 275 274 275 274 270 270 270 269 269 270 274 274 269 259 262 256 250 238 224 204 195 192 187 174
312 310 311 309 306 303 301 298 296 295 296 296 296 296 299 299 295 294 288 280 274 272 274 274 273 269 271 272 276 276 271 266 254 252 243 237 225 211 196 191 184 174 166
320 317 313 308 307 306 303 301 300 298 295 295 296 300 301 292 289 286 284 279 275 273 272 273 271 271 269 271 277 277 264 258 250 248 239 226 213 194 189 187 175 171 169
328 326 321 316 314 310 308 306 302 301 300 300 302 304 304 295 294 294 294 293 290 287 283 278 275 271 271 273 273 269 261 253 245 237 225 213 197 191 187 177 172 168 166
337 333 328 323 319 315 312 310 307 305 303 302 302 302 303 301 300 298 297 296 295 294 289 287 282 275 276 274 273 265 254 250 241 229 211 195 189 187 181 173 168 164 165
340 335 332 330 326 321 316 312 306 302 300 298 300 301 300 300 299 296 294 288 282 280 281 276 272 274 277 277 272 259 243 235 227 217 210 196 187 181 172 166 165 164 162
346 344 342 340 335 330 324 320 315 314 311 308 306 305 304 303 301 299 299 299 298 296 292 288 281 278 271 262 258 247 234 223 214 203 196 194 180 170 167 165 162 158 157
351 351 350 347 344 342 334 332 324 320 317 316 314 311 310 306 304 304 303 298 292 286 279 270 263 256 249 243 239 228 216 211 205 195 191 175 166 165 164 160 155 154 157